Haleyville, AL

7:14 PM CDT on October 19, 2017 (GMT -0500)
Haleyville

Weather History for K1M4 - October, 2013

Change the Weather History Date:

Wednesday, October 23, 2013

  Actual Average (KJFX) Record (KJFX)
Temperature  
Mean Temperature 46 °F -  
Max Temperature 56 °F 71 °F 87 °F (2015)
Min Temperature 36 °F 44 °F 30 °F (1961)
Degree Days  
Heating Degree Days 18    
Moisture  
Dew Point 40 °F    
Average Humidity 78    
Maximum Humidity 100    
Minimum Humidity 47    
Precipitation  
Precipitation 0.00 in - - ()
Sea Level Pressure  
Sea Level Pressure 30.11 in    
Wind  
Wind Speed 4 mph (NW)    
Max Wind Speed 13 mph    
Max Gust Speed 20 mph    
Visibility 10 miles    
Events      
Averages and records for this station are not official NWS values.
T = Trace of Precipitation, MM = Missing Value Source: NWS Daily Summary

Daily Weather History Graph

Daily Weather History Graph

Search for Another Location

Airport or City:

Trip Planner

Search our weather history database for the weather conditions in past years. The results will help you decide how hot, cold, wet, or windy it might be!

Date:

Astronomy

Oct. 23, 2013 Rise Set
Actual Time 7:02 AM CDT 6:06 PM CDT
Civil Twilight 6:37 AM CDT 6:31 PM CDT
Nautical Twilight 6:07 AM CDT 7:01 PM CDT
Astronomical Twilight 5:38 AM CDT 7:30 PM CDT
Moon 9:43 PM CDT (10/23) 11:12 AM CDT (10/23)
Length of Visible Light 11h 54m
Length of Day
11h 03m
Waning Gibbous, 79% of the Moon is Illuminated
Oct 23
Waning Gibbous
Oct 26
Last Quarter
Nov 3
New
Nov 9
First Quarter
Nov 17
Full

Hourly Weather History & Observations

Time (CDT) Temp. Windchill Dew Point Humidity Pressure Visibility Wind Dir Wind Speed Gust Speed Precip Events Conditions
12:56 AM 47.8 °F - 43.9 °F 86% 30.00 in 10.0 mi Calm Calm - N/A   Clear
1:56 AM 46.9 °F - 43.0 °F 86% 29.99 in 10.0 mi SW 4.6 mph - N/A   Clear
2:56 AM 47.8 °F - 43.0 °F 83% 30.00 in 10.0 mi Calm Calm - N/A   Clear
3:56 AM 46.9 °F - 43.9 °F 89% 30.01 in 10.0 mi Variable 3.5 mph - N/A   Clear
4:56 AM 45.9 °F - 43.9 °F 93% 30.02 in 10.0 mi Calm Calm - N/A   Clear
5:56 AM 45.0 °F - 43.0 °F 93% 30.04 in 10.0 mi Calm Calm - N/A   Clear
6:56 AM 43.9 °F 40.5 °F 41.0 °F 90% 30.06 in 10.0 mi NNW 5.8 mph - N/A   Clear
7:56 AM 45.0 °F 41.2 °F 41.9 °F 89% 30.09 in 10.0 mi NNW 6.9 mph - N/A   Scattered Clouds
8:10 AM 46.4 °F 42.4 °F 42.8 °F 87% 30.06 in 10.0 mi NNW 8.1 mph - N/A   Mostly Cloudy
8:24 AM 46.4 °F 42.4 °F 42.8 °F 87% 30.06 in 10.0 mi NW 8.1 mph - N/A   Scattered Clouds
8:56 AM 46.9 °F - 43.0 °F 86% 30.12 in 10.0 mi NNW 9.2 mph 18.4 mph N/A   Scattered Clouds
9:35 AM 48.2 °F - 42.8 °F 82% 30.10 in 10.0 mi NW 11.5 mph - N/A   Mostly Cloudy
9:49 AM 48.2 °F - 41.0 °F 76% 30.10 in 10.0 mi NW 12.7 mph - N/A   Scattered Clouds
9:56 AM 48.9 °F - 39.9 °F 71% 30.14 in 10.0 mi NNW 11.5 mph 19.6 mph N/A   Partly Cloudy
10:56 AM 52.0 °F - 37.9 °F 59% 30.15 in 10.0 mi North 12.7 mph - N/A   Clear
11:56 AM 54.0 °F - 36.9 °F 52% 30.16 in 10.0 mi NW 10.4 mph 18.4 mph N/A   Clear
12:56 PM 54.9 °F - 36.9 °F 51% 30.15 in 10.0 mi NNW 11.5 mph - N/A   Clear
1:56 PM 55.9 °F - 36.9 °F 49% 30.14 in 10.0 mi WNW 8.1 mph 16.1 mph N/A   Clear
2:56 PM 56.8 °F - 36.9 °F 47% 30.12 in 10.0 mi North 6.9 mph - N/A   Clear
3:56 PM 55.9 °F - 36.0 °F 47% 30.14 in 10.0 mi Variable 5.8 mph - N/A   Clear
4:56 PM 54.9 °F - 37.9 °F 53% 30.14 in 10.0 mi Variable 5.8 mph - N/A   Clear
5:56 PM 50.9 °F - 37.9 °F 61% 30.15 in 10.0 mi NW 3.5 mph - N/A   Clear
6:56 PM 43.9 °F - 39.9 °F 86% 30.16 in 10.0 mi Calm Calm - N/A   Clear
7:56 PM 41.9 °F - 39.9 °F 93% 30.17 in 10.0 mi Calm Calm - N/A   Clear
8:56 PM 41.0 °F - 38.8 °F 92% 30.17 in 10.0 mi Calm Calm - N/A   Clear
9:56 PM 39.9 °F - 38.8 °F 96% 30.18 in 10.0 mi Calm Calm - N/A   Clear
10:56 PM 37.9 °F - 37.9 °F 100% 30.18 in 10.0 mi Calm Calm - N/A   Clear
11:56 PM 36.9 °F - 36.9 °F 100% 30.18 in 10.0 mi Calm Calm - N/A   Clear